Location: Corte Bragagnani
(45.3000°N, 11.1000°E)
Time: 01:10:53
(UTC+00:00)

Terra - Pass Details

Date: 09 April 2020
Orbit: 701 x 703 km, 98.2° (Epoch: 30 May)

Event Time Altitude Azimuth Distance (km) Brightness Sun altitude
Exits shadow 20:29:27 34° 50° (NE) 1,155 2.8 -24.8°
Drops below altitude 10° 20:33:10 10° 3° (N) 2,182 4.9 -25.3°
Sets 20:35:34 0° 355° (N) 3,105 5.9 -25.6°
